ニオワイズ彗星

C/2022 P1 ( NEOWISE )

English version
Home page
Updated on April 23, 2023

---------------------------------------------------------------------

・ プロフィール

発見日 2022年8月8日
発見光度 18等
発見者 Near-Earth Object Wide-field Infrared Survey Explorer

・ 写真集

・ 軌道要素

Epoch 2023 Feb. 25.0 TT = JDT 2460000.5
T 2022 Nov. 28.47520 TT                                 Rudenko
q   1.5952324            (2000.0)            P               Q
n   0.01245164     Peri.  249.93534     +0.67044971     -0.71933980
a  18.4353598      Node   205.08249     -0.41145541     -0.56435681
e   0.9134689      Incl.  154.60685     -0.61741528     -0.40503290
P  79.2
>From 657 observations 2022 Aug. 8-2023 Apr. 17, mean residual 0".5.

・ 星図

・ 光度変化

        m1 = 3.0 + 5 logΔ + 30 log r

---------------------------------------------------------------------

軌道要素はM.P.E.C. 2023-H131に掲載されたものです。
星図はステラナビゲータ Ver.10 (アストロアーツ) で作成したものです。
光度グラフはComet for Windowsで作成したものです。

---------------------------------------------------------------------

Copyright(C) Seiichi Yoshida (comet@aerith.net). All rights reserved.